[[{"header":{"parameterUnit":"m.s-1","parameterCategory":1,"la1":30.2992,"la2":30.254,"lo1":-89.0895,"lo2":-89.0443,"dy":0.0025,"dx":0.0025,"nx":19,"ny":19,"refTime":"2026-04-01T03:00:00:Z","depth":0,"parameterNumber":2,"parameterNumberName":"U-component_of_WINDS"},"data":[0,0,0,-3.7269,-3.7271,-3.7352,-3.7353,-3.7462,-3.7463,0,0,0,0,0,0,0,0,0,0,0,-3.7248,-3.7249,-3.7269,-3.7271,-3.7352,-3.7353,-3.7462,-3.7463,0,0,0,0,0,0,0,0,0,0,0,-3.7248,-3.7249,-3.725,-3.7271,-3.7352,-3.7353,-3.7462,-3.7398,0,0,0,0,0,0,0,0,0,0,-3.7318,-3.7302,-3.7248,-3.725,-3.7272,-3.7352,-3.7353,-3.7395,-3.7402,-3.7427,0,-3.7451,0,-3.7459,-3.7471,-3.7471,0,0,0,-3.7268,-3.7296,-3.7315,-3.725,-3.7273,-3.7352,-3.7315,-3.7399,-3.7407,-3.7437,-3.7452,-3.7456,-3.7461,-3.7471,-3.7472,-3.7627,-3.7628,0,0,-3.7264,-3.7264,-3.731,-3.7321,-3.7308,-3.7312,-3.7317,-3.7404,-3.742,-3.7453,-3.7459,-3.7462,-3.7472,-3.7473,-3.7627,-3.7628,0,0,0,-3.7253,-3.7261,-3.7278,-3.7316,-3.7331,-3.7315,-3.7321,-3.7416,-3.7422,-3.746,-3.7464,-3.7473,-3.7474,-3.7626,-3.7627,-3.7668,0,0,0,-3.725,-3.7254,-3.7276,-3.7277,-3.7329,-3.7374,-3.7331,-3.7416,-3.7426,-3.7463,-3.7473,-3.7475,-3.7625,-3.7626,-3.7664,-3.7686,0,0,0,-3.7241,-3.7253,-3.7266,-3.7277,-3.7312,-3.7373,-3.7384,-3.7418,-3.7428,-3.7471,-3.7476,-3.7624,-3.7626,-3.7662,-3.7681,-3.7726,0,0,0,-3.7232,-3.7301,-3.7267,-3.7346,-3.7311,-3.7399,-3.7383,-3.7448,-3.749,-3.7473,-3.7625,-3.7627,-3.7661,-3.7678,-3.7723,-3.7761,-3.7778,0,0,-3.7319,-3.7311,-3.7358,-3.733,-3.7423,-3.7386,-3.7486,-3.7523,-3.7528,-3.7594,-3.7598,-3.7665,-3.7681,-3.7725,-3.7877,-3.789,0,0,0,-3.7385,-3.7418,-3.7443,-3.7483,-3.7515,-3.7544,-3.7567,-3.7581,-3.7638,-3.7562,-3.7695,-3.7704,-3.773,-3.7748,-3.776,-3.7781,-3.7636,-3.7636,-3.7636,-3.7505,-3.7508,-3.7585,-3.7598,-3.7638,-3.7662,-3.7694,-3.7718,-3.7709,-3.7741,-3.7759,-3.7851,-3.7872,-3.7881,-3.7903,-3.7782,-3.7782,-3.7782,-3.7783,-3.763,-3.7676,-3.7665,-3.7735,-3.7738,-3.7797,-3.7825,-3.7817,-3.7872,-3.7837,-3.7859,-3.7818,-3.7895,-3.7915,-3.7786,-3.7785,-3.7785,-3.7784,-3.7784,-3.7706,-3.7728,-3.7747,-3.7807,-3.7853,-3.7865,-3.7919,-3.7921,-3.7923,-3.7946,-3.7965,-3.7964,-3.7962,-3.7956,-3.7956,-3.7956,-3.7956,-3.7957,-3.7957,-3.7776,-3.7796,-3.7841,-3.7883,-3.791,-3.7946,-3.7974,-3.8001,-3.8031,-3.8027,-3.8027,-3.8014,-3.7904,-3.7874,-3.7962,-3.7961,-3.796,-3.796,-3.7959,-3.7896,-3.787,-3.794,-3.7968,-3.8018,-3.8064,-3.8067,-3.8122,-3.8144,-3.8171,-3.8155,-3.8074,-3.8066,-3.8057,-3.8032,-3.8155,-3.8155,-3.8155,-3.8155,-3.7958,-3.7956,-3.8028,-3.8072,-3.8116,-3.8127,-3.8206,-3.823,-3.8251,-3.8265,-3.8249,-3.8217,-3.8208,-3.8205,-3.8193,-3.817,-3.8326,-3.8326,-3.8326,-3.8032,-3.8034,-3.81,-3.8121,-3.8162,-3.8196,-3.8271,-3.8322,-3.834,-3.8333,-3.8276,-3.8269,-3.8219,-3.8203,-3.8189,-3.817,-3.8128,0,0]},{"header":{"parameterUnit":"m.s-1","parameterCategory":1,"la1":30.2992,"la2":30.254,"lo1":-89.0895,"lo2":-89.0443,"dy":0.0025,"dx":0.0025,"nx":19,"ny":19,"refTime":"2026-04-01T03:00:00:Z","depth":0,"parameterNumber":3,"parameterNumberName":"V-component_of_WINDS"},"data":[0,0,0,2.7138,2.7139,2.7216,2.7216,2.7295,2.7295,0,0,0,0,0,0,0,0,0,0,0,2.7104,2.7105,2.7138,2.7139,2.7216,2.7216,2.7294,2.7295,0,0,0,0,0,0,0,0,0,0,0,2.7104,2.7105,2.7105,2.714,2.7216,2.7216,2.7294,2.7243,0,0,0,0,0,0,0,0,0,0,2.7172,2.7132,2.7105,2.7105,2.714,2.7215,2.7216,2.7241,2.7247,2.7252,0,2.7255,0,2.7276,2.7299,2.7299,0,0,0,2.7147,2.7127,2.7157,2.7105,2.7141,2.7215,2.7183,2.7244,2.725,2.7259,2.7256,2.7259,2.7277,2.73,2.73,2.7306,2.7306,0,0,2.7143,2.7112,2.7153,2.716,2.7148,2.7181,2.7186,2.7248,2.7243,2.7256,2.7262,2.7279,2.73,2.73,2.7307,2.7306,0,0,0,2.7126,2.7109,2.7138,2.7157,2.7172,2.7183,2.7188,2.724,2.7252,2.7263,2.728,2.73,2.7301,2.7307,2.7306,2.7261,0,0,0,2.7123,2.7099,2.7136,2.7118,2.717,2.7207,2.7178,2.7248,2.7256,2.7279,2.73,2.7302,2.7307,2.7307,2.7263,2.7244,0,0,0,2.7103,2.7097,2.7104,2.7116,2.7148,2.7207,2.7223,2.725,2.7266,2.7299,2.7302,2.7308,2.7307,2.7265,2.7247,2.7237,0,0,0,2.7073,2.7062,2.7103,2.7098,2.7147,2.7178,2.7223,2.7247,2.727,2.7301,2.7307,2.7307,2.7265,2.725,2.7239,2.7224,2.7214,0,0,2.7043,2.7058,2.7057,2.7096,2.7111,2.7169,2.7177,2.7227,2.7258,2.7288,2.7289,2.7262,2.7248,2.7238,2.717,2.7162,0,0,0,2.7037,2.7036,2.7047,2.7068,2.7105,2.7136,2.7188,2.7206,2.7233,2.7268,2.7256,2.7248,2.7244,2.7238,2.7231,2.7229,2.7302,2.7302,2.7302,2.6952,2.6992,2.6993,2.7041,2.706,2.7113,2.7132,2.7166,2.72,2.7196,2.7206,2.7161,2.7153,2.7148,2.7145,2.7201,2.72,2.72,2.72,2.6912,2.6918,2.6962,2.698,2.7021,2.7036,2.7085,2.7109,2.7128,2.7157,2.7155,2.7183,2.7138,2.7138,2.7197,2.7198,2.7198,2.7198,2.7198,2.6862,2.6871,2.6893,2.6926,2.6947,2.6996,2.7012,2.7049,2.7083,2.7081,2.7095,2.7096,2.7102,2.7085,2.7085,2.7085,2.7084,2.7084,2.7084,2.6802,2.6828,2.6837,2.6875,2.6892,2.692,2.6971,2.6989,2.7018,2.7044,2.7044,2.7078,2.7126,2.7138,2.7082,2.7082,2.7083,2.7083,2.7083,2.6749,2.6766,2.6781,2.6798,2.6845,2.6862,2.6908,2.6941,2.6961,2.6967,2.7002,2.7031,2.7049,2.7054,2.7064,2.6993,2.6993,2.6993,2.6993,2.6707,2.6719,2.6742,2.6767,2.6795,2.6838,2.6852,2.689,2.6933,2.6948,2.6963,2.6979,2.6983,2.6999,2.7005,2.7015,2.6933,2.6933,2.6933,2.6677,2.6693,2.6699,2.6741,2.6779,2.6811,2.6826,2.6852,2.6904,2.6932,2.696,2.6963,2.6989,2.6995,2.7025,2.7035,2.7054,0,0]}]]